Find Starlink 4623

NORAD ID: 55315 Int'l Des: 2023-010 Owner: SPXS Country: US Constellation: starlink operational
LEOCIRCULAR

現在のビュー

3D地球を読み込み中...

Starlink 4623について

説明を読み込み中...

次回通過

Passes for default location (London). Set your location on the main map for personalized predictions.

高度履歴

Loading altitude history...

軌道要素

1 55315U 23010AY 26151.43686001 .00000263 00000-0 29828-4 0 9992
2 55315 69.9986 175.8286 0004101 267.7437 92.3252 14.98332870185650
Epoch: May 31, 2026 • Age: 6 hours

現在のステータス

高度 574.4 km
速度 7.57 km/s
衛星直下点 5.42°N, 34.13°E
打ち上げ日 Jan 19, 2023
運用期間 3.3 years
タイプ internet

技術仕様

分類 Payload
質量 305.00 kg
乾燥質量 290.00 kg
総質量 305.00 kg
長さ 0.20 m
直径 2.80 m
スパン 9.00 m
形状 Box + pan
製造者 SPXS
バスタイプ Starlink
フェーズステータス In Orbit
所有者/国 SPXS/US

Most Searched